Vertical_Velocity
-0 -3 -1 -1 4 2 -1 -2 2 2 2 -3 -0 -1 1 4 -2 1 1 -2 -1 1 -3 -1 -1 -4 -4 1 1 0 -2 -3 -4 -3 -1 -1 -0 -1 -1 -2 -2 -4 -2 3 1
-5 2 4 -3 5 0 1 -0 3 3 1 -1 3 -1 -2 -1 -1 -3 -0 -4 -2 0 -2 2 -3 -6 -6 -0 1 0 -1 -3 -1 -3 -1 -1 0 0 -2 -1 -2 -2 -1 0 -1
0 0 3 -2 1 -4 -1 1 2 2 -3 -1 1 -0 -3 1 1 0 -2 -2 -2 -1 3 -1 -1 -2 -2 0 -0 -0 1 0 0 -1 2 -1 1 -1 -3 -1 -2 -1 -1 -1 -1
0 3 -3 5 -2 -6 2 4 -4 4 -3 5 -1 4 -1 4 -2 -0 -2 -0 -1 -6 3 -0 0 -2 -5 0 -0 0 -0 1 0 -0 -0 -2 -0 0 -3 -2 2 2 2 -3 -2
-4 6 2 -1 -2 -4 5 1 -4 3 -1 4 1 -1 2 2 -1 -2 -2 -1 -1 -3 2 2 -1 -2 -3 1 0 -0 1 0 0 -0 -0 -0 -0 -1 1 -4 -2 -2 -0 -1 -2
-0 1 -2 -2 3 2 -2 1 -2 -3 2 -1 1 -1 -1 1 1 0 -3 -1 -1 -1 0 -1 -1 -2 -5 -1 1 0 -1 -1 -0 -0 -1 -1 -2 -2 -3 -1 -1 -3 -3 -2 -1
-1 -2 -1 1 3 -1 1 -1 3 -0 -3 2 -5 1 -0 1 -3 3 -5 0 -2 -0 1 0 -1 -2 -3 0 0 -1 -2 -1 -1 -1 -1 -1 -3 -2 0 -2 -2 -1 -1 -0 -0
3 -1 1 -2 1 7 -8 2 4 7 -4 1 -1 -4 -1 3 -1 -1 -3 1 -2 1 2 1 0 -0 -3 -0 0 -1 -1 -1 -2 -2 -0 -1 -2 1 -2 -3 -2 -1 0 -2 -2
3 -2 2 -4 -1 5 -3 -1 5 3 1 -3 -0 -7 0 3 -0 -1 -3 1 -3 0 1 0 3 -0 -3 -0 0 -1 -1 -1 -2 -1 -1 1 -3 -2 -1 -0 -1 -1 -2 -2 -2
-4 7 -5 4 -3 0 -1 0 -1 3 -0 -2 -2 -6 3 2 -2 -3 -0 1 -4 2 2 1 2 -3 -1 -2 -2 -2 -1 3 -1 -4 -1 -2 1 -6 -2 -3 -3 -2 -1 -2 -2
-1 2 -3 -1 4 -4 8 -3 -0 1 1 -2 -2 -3 2 2 -2 -3 -1 -1 -2 0 2 -1 -1 -2 -0 2 1 1 1 0 -4 -0 -2 -1 -2 -0 0 -4 -5 -3 -3 -2 -1
-1 6 -6 4 0 2 1 -4 -3 -0 2 -6 -1 -4 1 0 -2 -1 -0 -2 -1 -1 -1 -0 -1 0 0 1 1 -0 0 0 -2 -1 -1 -0 -2 -4 -3 -3 -4 -4 -3 -2 -2
7 3 -5 3 6 -0 2 -4 -2 6 -1 -3 -0 -1 -0 0 -2 1 -1 -1 0 -1 -2 -1 -1 -0 1 0 -0 -2 -3 1 1 -0 -2 -2 -6 -4 -3 -3 -3 -3 -3 -4 -4
5 3 1 -1 -2 2 -3 -1 2 1 -2 -0 -1 -0 2 1 -1 -1 -0 -0 1 -2 0 -1 -1 -0 0 0 1 -2 -0 1 1 1 0 1 -7 -6 -5 -3 -3 -2 -2 -1 -4
-3 -1 2 -0 1 -0 -3 1 0 -0 -3 -1 -1 0 0 0 0 -1 1 0 0 -1 -0 -1 -0 -2 -1 0 1 -1 2 1 1 1 1 1 0 -5 -4 -8 -3 -2 -2 -4 -4
3 2 -1 -1 -1 0 0 1 2 -1 -3 -0 -1 0 -1 0 0 -2 -0 1 3 1 -2 2 0 -1 1 1 -0 -1 -0 -0 1 1 -0 2 -0 -8 -5 -3 0 -2 -3 -0 1
-0 2 -1 1 -2 0 1 1 -1 -1 1 1 -2 0 -2 -2 -1 0 0 2 2 -1 1 1 -1 -1 1 1 -0 0 -0 -1 -1 -0 -8 1 3 -21 -3 -7 -5 -4 -2 -1 -3
-0 -0 -0 -1 -1 1 -1 1 1 5 -0 1 0 1 -1 -1 -2 -1 -0 -2 1 1 -1 -1 -6 3 1 -0 1 1 0 1 -2 -2 -3 0 -8 -7 -3 -0 -2 -1 -5 -4 -5
-2 0 1 -1 -1 0 -0 -1 -0 1 0 0 -3 -1 -2 -1 0 0 -2 0 -1 -0 -2 -1 1 0 0 1 2 -1 -2 1 1 3 1 -1 -4 -10 -4 -1 -1 -0 -2 -2 -2
-1 1 2 -2 0 -2 1 -2 2 2 2 -1 -2 0 0 -1 -1 -1 -2 -0 -2 -1 3 -2 -2 -2 -0 1 -1 -0 0 1 1 -2 -1 -4 -4 -22 -6 -1 -0 -1 -3 -2 -1
-0 -1 2 1 -1 -1 -4 -3 -1 1 2 4 1 0 -1 3 0 2 -3 -1 1 0 2 3 3 -4 -0 -2 2 2 -2 0 -1 -0 -4 -2 -13 -4 -1 -3 0 -2 -2 -0 0
-2 2 -2 -1 0 -0 -2 1 -0 -2 2 0 -1 2 2 3 -2 0 -2 -1 2 1 -1 2 2 -3 -3 -2 1 1 2 5 3 -2 1 2 -46 -1 -3 1 -1 -2 -1 -1 -1
-3 1 -0 -1 -3 -0 4 -2 0 -2 -1 -3 0 0 1 -2 -1 -0 -2 -0 3 0 1 1 2 -2 -2 -1 1 -1 1 4 3 3 -5 0 -29 -1 1 -0 6 -0 1 -2 -4
-1 -2 -1 -0 1 -0 2 -2 1 -1 -1 -3 -2 2 3 -2 6 -4 -3 2 0 1 2 3 -1 -3 -10 2 2 -1 4 2 10 2 -1 -33 -11 -10 24 1 7 2 -6 -2 -4
0 -1 -3 -1 -2 0 2 -1 0 2 -1 3 -7 4 5 -3 3 -4 4 1 1 2 1 2 -8 6 -3 -2 3 -0 -5 4 1 -8 3 -35 5 -24 8 6 2 4 0 1 0
-0 -1 -1 2 2 1 5 -5 0 3 -1 -2 -8 12 4 -9 11 0 3 1 3 -2 2 1 -12 -1 -16 6 5 -5 -5 2 -4 -2 -4 3 -35 18 -1 5 -1 3 -1 -3 -1
-0 0 -0 1 4 2 2 3 1 -1 3 -3 -0 -2 1 2 1 2 -1 -1 2 -2 3 4 4 2 -17 2 5 -5 -15 1 5 2 7 -3 -14 8 -2 6 -2 3 -1 -2 0
Height
3182 3184 3183 3183 3184 3185 3187 3188 3191 3194 3196 3199 3200 3202 3203 3204 3203 3204 3205 3205 3205 3204 3204 3203 3203 3201 3201 3202 3202 3202 3203 3201 3201 3200 3201 3201 3201 3201 3201 3201 3200 3198 3198 3198 3197
3184 3186 3186 3185 3186 3188 3189 3190 3193 3196 3198 3200 3202 3203 3204 3204 3205 3205 3205 3204 3204 3204 3204 3203 3202 3200 3200 3201 3202 3202 3201 3199 3199 3199 3199 3199 3200 3199 3199 3198 3197 3196 3196 3196 3194
3186 3187 3187 3188 3189 3190 3191 3193 3195 3198 3199 3201 3203 3204 3205 3204 3207 3206 3204 3204 3203 3203 3203 3202 3201 3200 3200 3200 3200 3200 3200 3199 3199 3198 3198 3198 3198 3198 3196 3196 3195 3194 3194 3193 3191
3187 3189 3189 3191 3191 3191 3194 3195 3197 3199 3201 3202 3204 3204 3204 3205 3208 3205 3204 3203 3203 3202 3202 3201 3200 3198 3198 3199 3199 3199 3198 3198 3198 3197 3197 3196 3196 3195 3194 3193 3193 3192 3191 3189 3188
3188 3190 3191 3192 3192 3193 3196 3197 3199 3200 3201 3202 3203 3204 3205 3205 3205 3204 3203 3202 3202 3201 3202 3200 3199 3198 3198 3198 3198 3197 3197 3197 3196 3195 3195 3194 3193 3192 3191 3189 3189 3188 3187 3186 3184
3191 3191 3191 3192 3194 3195 3197 3198 3200 3200 3201 3203 3203 3204 3203 3205 3204 3203 3203 3202 3201 3201 3200 3199 3198 3198 3197 3197 3197 3196 3196 3195 3195 3194 3193 3192 3191 3189 3188 3187 3186 3185 3184 3182 3181
3192 3192 3193 3194 3195 3196 3197 3199 3200 3200 3201 3201 3203 3203 3204 3204 3202 3202 3202 3201 3200 3200 3199 3198 3197 3197 3197 3197 3196 3195 3195 3194 3194 3193 3191 3190 3188 3186 3185 3184 3182 3181 3180 3178 3177
3192 3193 3195 3195 3196 3197 3197 3199 3200 3200 3199 3201 3201 3203 3202 3201 3200 3201 3201 3201 3199 3199 3199 3197 3196 3196 3195 3196 3195 3194 3194 3193 3192 3191 3190 3188 3185 3184 3181 3179 3178 3177 3176 3175 3174
3193 3194 3195 3196 3197 3197 3198 3198 3199 3198 3199 3199 3200 3202 3202 3200 3199 3200 3200 3200 3199 3199 3198 3196 3195 3194 3194 3195 3194 3193 3192 3191 3190 3188 3187 3186 3181 3179 3177 3176 3174 3173 3172 3171 3170
3193 3193 3195 3196 3196 3197 3197 3196 3197 3197 3198 3198 3198 3203 3201 3200 3199 3199 3199 3199 3199 3198 3198 3196 3194 3193 3193 3193 3192 3191 3190 3190 3187 3187 3184 3181 3178 3175 3174 3172 3171 3170 3170 3169 3167
3192 3194 3194 3195 3196 3197 3197 3196 3199 3199 3196 3197 3198 3200 3199 3198 3198 3198 3198 3198 3197 3197 3196 3194 3194 3192 3192 3192 3191 3189 3188 3187 3185 3184 3181 3177 3174 3173 3173 3171 3169 3168 3167 3165 3163
3194 3193 3193 3195 3195 3196 3196 3195 3196 3198 3196 3195 3197 3198 3197 3196 3197 3197 3197 3197 3196 3195 3194 3195 3192 3191 3191 3190 3189 3187 3187 3185 3183 3181 3179 3175 3172 3171 3170 3169 3166 3164 3163 3161 3159
3192 3192 3194 3194 3194 3195 3194 3195 3195 3195 3194 3195 3195 3196 3196 3196 3195 3196 3196 3194 3194 3193 3192 3191 3190 3189 3189 3188 3187 3185 3184 3183 3182 3178 3175 3173 3170 3168 3167 3165 3163 3161 3159 3156 3154
3191 3192 3192 3193 3195 3194 3193 3195 3195 3194 3194 3196 3195 3195 3194 3193 3193 3193 3193 3193 3192 3191 3190 3189 3187 3187 3187 3186 3185 3183 3182 3181 3179 3177 3174 3172 3168 3164 3163 3161 3159 3157 3155 3152 3149
3191 3191 3190 3191 3192 3193 3195 3194 3194 3194 3195 3195 3194 3193 3192 3193 3192 3191 3191 3190 3189 3188 3190 3187 3185 3185 3184 3183 3183 3183 3181 3178 3176 3174 3172 3168 3168 3158 3158 3156 3156 3153 3151 3149 3145
3190 3190 3190 3191 3191 3192 3193 3194 3194 3196 3192 3192 3192 3192 3191 3189 3189 3189 3188 3188 3187 3185 3184 3183 3182 3182 3181 3181 3180 3180 3179 3177 3175 3173 3170 3163 3165 3153 3152 3151 3151 3149 3148 3145 3142
3188 3188 3189 3189 3191 3191 3191 3193 3195 3192 3192 3192 3190 3189 3188 3187 3186 3186 3186 3185 3185 3184 3182 3180 3179 3178 3177 3177 3178 3177 3177 3175 3174 3172 3165 3161 3161 3148 3147 3147 3147 3146 3145 3142 3139
3186 3187 3187 3188 3189 3190 3190 3193 3192 3190 3190 3189 3188 3187 3186 3185 3185 3184 3182 3181 3180 3180 3180 3178 3177 3175 3174 3174 3175 3175 3175 3173 3170 3169 3162 3160 3151 3143 3143 3143 3142 3141 3139 3136 3133
3183 3184 3185 3185 3186 3187 3189 3189 3188 3188 3187 3187 3187 3185 3185 3185 3185 3181 3180 3178 3177 3177 3179 3176 3174 3172 3172 3171 3174 3172 3171 3171 3169 3164 3161 3151 3144 3141 3138 3138 3137 3135 3133 3131 3128
3181 3182 3183 3183 3183 3184 3186 3186 3185 3185 3185 3185 3185 3185 3184 3182 3182 3180 3178 3176 3175 3174 3173 3172 3171 3169 3168 3168 3168 3167 3168 3168 3166 3164 3160 3144 3139 3135 3133 3133 3132 3131 3129 3127 3124
3178 3178 3179 3179 3180 3181 3181 3182 3182 3182 3183 3184 3182 3182 3182 3181 3179 3179 3177 3175 3172 3171 3171 3170 3169 3166 3165 3163 3162 3163 3161 3162 3162 3158 3154 3150 3133 3129 3129 3128 3127 3126 3123 3122 3120
3174 3175 3175 3176 3178 3176 3176 3178 3178 3178 3179 3180 3179 3178 3178 3177 3175 3174 3172 3171 3170 3169 3168 3167 3164 3161 3160 3159 3157 3157 3156 3156 3155 3151 3147 3143 3127 3128 3124 3123 3122 3120 3117 3115 3112
3170 3171 3171 3172 3172 3172 3173 3173 3174 3173 3174 3174 3174 3174 3173 3173 3173 3169 3167 3167 3166 3165 3164 3163 3161 3158 3155 3154 3151 3151 3152 3151 3150 3147 3139 3142 3120 3122 3120 3120 3117 3115 3112 3108 3105
3167 3167 3167 3167 3167 3167 3168 3169 3169 3168 3168 3168 3168 3168 3168 3167 3168 3165 3164 3163 3162 3162 3161 3160 3157 3154 3152 3151 3149 3147 3147 3147 3145 3141 3131 3125 3113 3115 3115 3113 3112 3108 3105 3102 3099
3160 3161 3161 3162 3162 3163 3163 3163 3163 3164 3163 3164 3163 3163 3163 3161 3160 3159 3159 3158 3157 3156 3154 3153 3149 3147 3144 3144 3142 3139 3138 3137 3133 3129 3124 3112 3112 3104 3105 3104 3102 3099 3097 3095 3091
3156 3156 3156 3157 3158 3158 3157 3158 3159 3160 3159 3158 3158 3159 3158 3156 3157 3156 3155 3153 3151 3150 3149 3146 3142 3139 3134 3136 3134 3130 3129 3124 3120 3117 3110 3104 3099 3098 3099 3097 3096 3094 3091 3087 3083
3148 3149 3149 3150 3151 3151 3152 3153 3153 3152 3153 3153 3153 3152 3152 3152 3150 3148 3147 3146 3144 3143 3143 3141 3138 3134 3124 3129 3125 3119 3115 3113 3108 3104 3102 3098 3093 3093 3091 3090 3089 3087 3083 3079 3076